When you browse on this site, cookies collect data to enhance your experience and personalize the content and advertising you see.
Visit our Privacy Policy to learn more. By continuing to use the site, you agree to this use of cookies and data.

Stündliche Wetter Dangriga

Heute, 10 August, Montag

Zeit Temperatur Niederschläge Wind Luftdruck Luftfeuchtigkeit
00:00 +27°C° 0.7 mm 6 m/S 761 mmHg 98%
01:00 +27°C° 0.3 mm 5 m/S 760 mmHg 98%
02:00 +27°C° 0.3 mm 5 m/S 760 mmHg 98%
03:00 +27°C° 0.3 mm 5 m/S 759 mmHg 98%
04:00 +27°C° 0.8 mm 5 m/S 759 mmHg 98%
05:00 +27°C° 0.8 mm 5 m/S 759 mmHg 99%
06:00 +27°C° 0.8 mm 5 m/S 759 mmHg 99%
07:00 +27°C° 2.2 mm 6 m/S 759 mmHg 98%
08:00 +28°C° 2.2 mm 6 m/S 760 mmHg 97%
09:00 +29°C° 2.2 mm 6 m/S 760 mmHg 96%
10:00 +29°C° 3.1 mm 6 m/S 760 mmHg 96%
11:00 +29°C° 3.1 mm 7 m/S 760 mmHg 95%
12:00 +29°C° 3.1 mm 7 m/S 760 mmHg 95%
13:00 +29°C° 1.6 mm 7 m/S 760 mmHg 95%
14:00 +28°C° 1.6 mm 7 m/S 759 mmHg 96%
15:00 +28°C° 1.6 mm 7 m/S 759 mmHg 97%
16:00 +28°C° 0.7 mm 7 m/S 759 mmHg 96%
17:00 +28°C° 0.7 mm 6 m/S 759 mmHg 96%
18:00 +27°C° 0.7 mm 6 m/S 759 mmHg 95%
19:00 +27°C° 1.6 mm 6 m/S 759 mmHg 96%
20:00 +26°C° 1.6 mm 6 m/S 759 mmHg 97%
21:00 +26°C° 1.6 mm 5 m/S 760 mmHg 99%
22:00 +26°C° 1.3 mm 5 m/S 760 mmHg 99%
23:00 +26°C° 1.3 mm 5 m/S 759 mmHg 99%

Morgen, 11 August, Dienstag

Zeit Temperatur Niederschläge Wind Luftdruck Luftfeuchtigkeit
00:00 +26°C° 1.3 mm 5 m/S 759 mmHg 99%
01:00 +26°C° 0.9 mm 4 m/S 759 mmHg 99%
02:00 +26°C° 0.9 mm 4 m/S 758 mmHg 99%
03:00 +26°C° 0.9 mm 4 m/S 758 mmHg 98%
04:00 +26°C° 0.1 mm 4 m/S 758 mmHg 98%
05:00 +26°C° 0.1 mm 4 m/S 758 mmHg 98%
06:00 +26°C° 0.1 mm 4 m/S 758 mmHg 98%
07:00 +27°C° 0.2 mm 4 m/S 759 mmHg 95%
08:00 +29°C° 0.2 mm 4 m/S 759 mmHg 93%
09:00 +30°C° 0.2 mm 4 m/S 760 mmHg 90%
10:00 +32°C° 0.2 mm 4 m/S 759 mmHg 80%
11:00 +34°C° 0.2 mm 4 m/S 759 mmHg 69%
12:00 +35°C° 0.2 mm 4 m/S 759 mmHg 59%
13:00 +35°C° 0.1 mm 4 m/S 759 mmHg 60%
14:00 +35°C° 0.1 mm 4 m/S 758 mmHg 61%
15:00 +34°C° 0.1 mm 4 m/S 757 mmHg 63%
16:00 +33°C° 0 mm 4 m/S 758 mmHg 71%
17:00 +32°C° 0 mm 4 m/S 758 mmHg 79%
18:00 +29°C° 0 mm 4 m/S 758 mmHg 87%
19:00 +28°C° 0.1 mm 4 m/S 758 mmHg 91%
20:00 +27°C° 0.1 mm 4 m/S 759 mmHg 95%
21:00 +26°C° 0.1 mm 3 m/S 759 mmHg 98%
22:00 +26°C° 0.6 mm 3 m/S 759 mmHg 98%
23:00 +26°C° 0.6 mm 3 m/S 759 mmHg 98%

übermorgen, 12 August, Mittwoch

Zeit Temperatur Niederschläge Wind Luftdruck Luftfeuchtigkeit
00:00 +26°C° 0.6 mm 3 m/S 759 mmHg 98%
01:00 +26°C° 0.4 mm 3 m/S 758 mmHg 98%
02:00 +26°C° 0.4 mm 3 m/S 758 mmHg 98%
03:00 +26°C° 0.4 mm 3 m/S 758 mmHg 98%
04:00 +26°C° 0.3 mm 3 m/S 758 mmHg 98%
05:00 +26°C° 0.3 mm 2 m/S 758 mmHg 98%
06:00 +26°C° 0.3 mm 2 m/S 758 mmHg 98%
07:00 +27°C° 0.9 mm 3 m/S 759 mmHg 96%
08:00 +28°C° 0.9 mm 3 m/S 759 mmHg 93%
09:00 +30°C° 0.9 mm 3 m/S 760 mmHg 91%
10:00 +30°C° 0.7 mm 3 m/S 759 mmHg 88%
11:00 +30°C° 0.7 mm 3 m/S 759 mmHg 85%
12:00 +31°C° 0.7 mm 3 m/S 759 mmHg 82%
13:00 +31°C° 0.2 mm 3 m/S 758 mmHg 81%
14:00 +31°C° 0.2 mm 3 m/S 758 mmHg 80%
15:00 +31°C° 0.2 mm 3 m/S 757 mmHg 79%
16:00 +30°C° 0.1 mm 3 m/S 757 mmHg 83%
17:00 +29°C° 0.1 mm 3 m/S 757 mmHg 86%
18:00 +28°C° 0.1 mm 3 m/S 758 mmHg 90%
19:00 +28°C° 0.5 mm 3 m/S 758 mmHg 93%
20:00 +27°C° 0.5 mm 3 m/S 758 mmHg 95%
21:00 +26°C° 0.5 mm 3 m/S 759 mmHg 98%
22:00 +26°C° 0.6 mm 3 m/S 759 mmHg 98%
23:00 +26°C° 0.6 mm 2 m/S 759 mmHg 98%

13 August, Donnerstag

Zeit Temperatur Niederschläge Wind Luftdruck Luftfeuchtigkeit
00:00 +26°C° 0.6 mm 2 m/S 759 mmHg 98%
01:00 +26°C° 0.8 mm 2 m/S 758 mmHg 98%
02:00 +25°C° 0.8 mm 2 m/S 758 mmHg 98%
03:00 +25°C° 0.8 mm 1 m/S 758 mmHg 98%
04:00 +25°C° 0.5 mm 1 m/S 758 mmHg 98%
05:00 +25°C° 0.5 mm 1 m/S 758 mmHg 98%
06:00 +25°C° 0.5 mm 1 m/S 758 mmHg 98%
07:00 +27°C° 0.5 mm 2 m/S 759 mmHg 93%
08:00 +29°C° 0.5 mm 2 m/S 759 mmHg 87%
09:00 +30°C° 0.5 mm 2 m/S 759 mmHg 82%
10:00 +31°C° 0.3 mm 2 m/S 759 mmHg 77%
11:00 +32°C° 0.3 mm 2 m/S 759 mmHg 72%
12:00 +34°C° 0.3 mm 3 m/S 759 mmHg 67%
13:00 +34°C° 0.1 mm 3 m/S 758 mmHg 65%
14:00 +34°C° 0.1 mm 4 m/S 758 mmHg 62%
15:00 +34°C° 0.1 mm 4 m/S 757 mmHg 59%
16:00 +33°C° 0 mm 4 m/S 757 mmHg 68%
17:00 +30°C° 0 mm 3 m/S 757 mmHg 77%
18:00 +29°C° 0 mm 3 m/S 758 mmHg 86%
19:00 +28°C° 0.1 mm 3 m/S 758 mmHg 89%
20:00 +27°C° 0.1 mm 3 m/S 759 mmHg 92%
21:00 +26°C° 0.1 mm 3 m/S 759 mmHg 95%
22:00 +26°C° 0.1 mm 3 m/S 759 mmHg 96%
23:00 +26°C° 0.1 mm 3 m/S 759 mmHg 96%

14 August, Freitag

Zeit Temperatur Niederschläge Wind Luftdruck Luftfeuchtigkeit
00:00 +25°C° 0.1 mm 3 m/S 758 mmHg 96%
01:00 +25°C° 0 mm 2 m/S 758 mmHg 97%
02:00 +25°C° 0 mm 2 m/S 757 mmHg 97%
03:00 +25°C° 0 mm 2 m/S 757 mmHg 98%
04:00 +25°C° 0 mm 2 m/S 757 mmHg 98%
05:00 +25°C° 0 mm 3 m/S 758 mmHg 98%
06:00 +25°C° 0 mm 3 m/S 758 mmHg 97%
07:00 +27°C° 0.1 mm 3 m/S 758 mmHg 88%
08:00 +29°C° 0.1 mm 3 m/S 759 mmHg 79%
09:00 +31°C° 0.1 mm 3 m/S 759 mmHg 69%
10:00 +34°C° 0 mm 3 m/S 759 mmHg 63%
11:00 +35°C° 0 mm 3 m/S 759 mmHg 56%
12:00 +36°C° 0 mm 3 m/S 758 mmHg 50%
13:00 +35°C° 0 mm 4 m/S 758 mmHg 51%
14:00 +35°C° 0 mm 4 m/S 757 mmHg 52%
15:00 +35°C° 0 mm 4 m/S 757 mmHg 53%
16:00 +33°C° 0.3 mm 4 m/S 757 mmHg 64%
17:00 +30°C° 0.3 mm 4 m/S 757 mmHg 75%
18:00 +29°C° 0.3 mm 4 m/S 757 mmHg 86%
19:00 +28°C° 0.3 mm 4 m/S 758 mmHg 89%
20:00 +27°C° 0.3 mm 3 m/S 758 mmHg 93%
21:00 +26°C° 0.3 mm 3 m/S 759 mmHg 96%
22:00 +26°C° 0.3 mm 3 m/S 759 mmHg 97%
23:00 +26°C° 0.3 mm 3 m/S 758 mmHg 97%

15 August, Samstag

Zeit Temperatur Niederschläge Wind Luftdruck Luftfeuchtigkeit
00:00 +26°C° 0.3 mm 3 m/S 758 mmHg 97%
01:00 +26°C° 0.7 mm 3 m/S 758 mmHg 97%
02:00 +26°C° 0.7 mm 3 m/S 757 mmHg 97%
03:00 +26°C° 0.7 mm 3 m/S 757 mmHg 97%
04:00 +26°C° 0.9 mm 3 m/S 757 mmHg 97%
05:00 +26°C° 0.9 mm 3 m/S 758 mmHg 97%
06:00 +26°C° 0.9 mm 3 m/S 758 mmHg 98%
07:00 +27°C° 1.6 mm 3 m/S 758 mmHg 96%
08:00 +28°C° 1.6 mm 3 m/S 758 mmHg 95%
09:00 +29°C° 1.6 mm 4 m/S 759 mmHg 94%
10:00 +29°C° 1 mm 4 m/S 759 mmHg 93%
11:00 +29°C° 1 mm 4 m/S 758 mmHg 93%
12:00 +29°C° 1 mm 4 m/S 758 mmHg 92%
13:00 +32°C° 0.3 mm 4 m/S 758 mmHg 81%
14:00 +33°C° 0.3 mm 4 m/S 757 mmHg 70%
15:00 +34°C° 0.3 mm 4 m/S 757 mmHg 59%
16:00 +32°C° 0.7 mm 4 m/S 757 mmHg 70%
17:00 +29°C° 0.7 mm 4 m/S 757 mmHg 82%
18:00 +28°C° 0.7 mm 4 m/S 757 mmHg 94%
19:00 +27°C° 0.9 mm 4 m/S 758 mmHg 95%
20:00 +27°C° 0.9 mm 4 m/S 758 mmHg 96%
21:00 +26°C° 0.9 mm 4 m/S 759 mmHg 98%
22:00 +26°C° 0.3 mm 3 m/S 758 mmHg 98%
23:00 +26°C° 0.3 mm 3 m/S 758 mmHg 98%
Mehr zeigen